BMCB-24 Weather Reports


time (UTC)temp
C
wind
direction
speed
KPH
gust
KPH
rain 1hr
cm
rain 24hr
cm
rain mn
cm
humidity
%
barometer
mb
20260504151104 11 0 0.0 0.0 0.10 0.28 0.28 94 1014.4
20260504141100 12 0 0.0 0.0 0.00 0.18 0.18 88 1014.4
20260504140110 12 0 0.0 0.0 0.00 0.18 0.18 90 1014.4
20260504081101 12 0 0.0 0.0 0.00 0.15 0.00 84 1014.7
20260504045053 6 0 0.0 0.0 0.00 0.15 0.00 10 1015.1
20260504044058 5 0 0.0 0.0 0.00 0.15 0.00 10 1015.1
20260504043057 5 0 0.0 0.0 0.00 0.15 0.00 10 1015.2
20260504042055 5 0 0.0 0.0 0.00 0.15 0.00 10 1015.1
20260504041055 5 0 0.0 0.0 0.00 0.15 0.00 10 1015.2
20260504040054 5 0 0.0 0.0 0.00 0.15 0.00 10 1015.2
20260504035056 5 0 0.0 0.0 0.00 0.15 0.00 10 1015.1
20260504034057 5 0 0.0 0.0 0.00 0.15 0.00 10 1015.1
20260504033056 5 0 0.0 0.0 0.00 0.15 0.00 10 1015.0
20260504032055 5 0 0.0 0.0 0.00 0.15 0.00 10 1015.1
20260504031056 5 0 0.0 0.0 0.00 0.15 0.00 10 1015.1
20260504030055 5 0 0.0 0.0 0.00 0.15 0.00 10 1015.0
20260504024053 5 0 0.0 0.0 0.00 0.15 0.00 10 1015.0
20260504023055 5 0 0.0 0.0 0.00 0.15 0.00 10 1015.1
20260504021057 5 0 0.0 0.0 0.00 0.15 0.00 10 1015.1
20260504020056 5 0 0.0 0.0 0.00 0.15 0.00 10 1015.2
20260504015058 5 0 0.0 0.0 0.00 0.15 0.00 10 1015.3
20260504014056 5 0 0.0 0.0 0.00 0.15 0.00 10 1015.4
20260504012055 6 0 0.0 0.0 0.00 0.15 0.00 10 1015.3
20260504011057 6 0 0.0 0.0 0.00 0.15 0.00 10 1015.3
20260504010056 6 0 0.0 0.0 0.00 0.15 0.00 10 1015.3
20260504005057 6 0 0.0 0.0 0.00 0.15 0.00 10 1015.2
20260504004057 6 0 0.0 0.0 0.00 0.15 0.00 10 1015.2
20260504003056 6 0 0.0 0.0 0.00 0.15 0.00 10 1015.2
20260504002056 6 0 0.0 0.0 0.00 0.15 0.00 10 1015.2
20260504001055 6 0 0.0 0.0 0.00 0.15 0.00 10 1015.1
20260503234109 6 0 0.0 0.0 0.00 0.15 0.00 99 1014.9
20260503233107 6 0 0.0 0.0 0.00 0.15 0.00 99 1014.9
20260503231104 6 0 0.0 0.0 0.00 0.15 0.00 99 1015.0
20260503230106 6 0 0.0 0.0 0.00 0.15 0.00 99 1015.1
20260503225105 6 0 0.0 0.0 0.00 0.15 0.00 99 1015.2
20260503224108 6 0 0.0 0.0 0.00 0.15 0.00 99 1015.3
20260503223108 6 0 0.0 0.0 0.00 0.15 0.00 99 1015.3
20260503222108 6 0 0.0 0.0 0.00 0.15 0.00 98 1015.2
20260503221107 6 0 0.0 0.0 0.00 0.15 0.00 98 1015.1
20260503220106 7 0 0.0 0.0 0.00 0.15 0.00 98 1015.0
20260503215112 7 0 0.0 0.0 0.00 0.15 0.15 98 1015.0
20260503214109 7 0 0.0 0.0 0.00 0.15 0.15 98 1015.1
20260503212108 7 0 0.0 0.0 0.00 0.15 0.15 98 1014.8
20260503210103 8 0 0.0 0.0 0.00 0.15 0.15 98 1014.8
20260503205110 8 0 0.0 0.0 0.00 0.15 0.15 98 1014.9
20260503204111 8 0 0.0 0.0 0.00 0.15 0.15 98 1014.9
20260503203106 8 0 0.0 0.0 0.00 0.15 0.15 97 1014.9
20260503202107 8 0 0.0 0.0 0.00 0.15 0.15 96 1014.8
20260503201114 8 0 0.0 0.0 0.00 0.15 0.15 96 1014.9
20260503200111 8 0 0.0 0.0 0.00 0.15 0.15 96 1014.8
20260503195110 9 0 0.0 0.0 0.00 0.15 0.15 96 1014.8
20260503192104 10 0 0.0 0.0 0.00 0.15 0.15 92 1014.6
20260503191102 10 0 0.0 0.0 0.00 0.15 0.15 90 1014.5
20260503190109 11 0 0.0 0.0 0.00 0.15 0.15 87 1014.3
20260503185105 12 0 0.0 0.0 0.00 0.15 0.15 85 1014.2
20260503184105 12 0 0.0 0.0 0.00 0.15 0.15 83 1013.9
20260503183103 13 0 0.0 0.0 0.00 0.15 0.15 82 1013.8
20260503182109 13 0 0.0 0.0 0.00 0.15 0.15 82 1013.8
20260503175102 13 0 0.0 0.0 0.00 0.15 0.15 81 1013.6
20260503174105 13 0 0.0 0.0 0.00 0.15 0.15 81 1013.6
20260503173104 13 0 0.0 0.0 0.00 0.15 0.15 81 1013.6
20260503172104 13 0 0.0 0.0 0.00 0.15 0.15 82 1013.6